Location: Sternwarte_Laufen
(47.9344°N, 12.9346°E)
Time: 04:40:21
(UTC+02:00)

ISS - Pass Details

Date: 08 July 2025
Orbit: 413 x 417 km, 51.6° (Epoch: 12 July)

Event Time Altitude Azimuth Distance (km) Brightness Sun altitude
Rises 22:47:07 0° 234° (SW) 2,343 0.0 -12.4°
Reaches altitude 10° 22:49:12 10° 231° (SW) 1,484 -1.0 -12.6°
Maximum altitude 22:52:29 60° 151° (SSE) 482 -3.8 -12.9°
Drops below altitude 10° 22:55:48 10° 71° (ENE) 1,493 -1.1 -13.2°
Sets 22:57:55 0° 68° (ENE) 2,359 0.0 -13.4°
